sat.trackr.live / text

‹ back to catalog

STARLINK-34771

NORAD 65078 · 2025-167A

PAYLOAD ACTIVE UNKNOWN

§ Identity

Operator
Country
US
Launch date
2025-08-04
Launch site
AFETR
Launch vehicle
Mass (kg)
RCS (m²)

Purposes: comms

External: N2YO · Heavens-Above · Gunter

§ Orbital elements

Epoch: 2026-09-20T08:43:40.998144Z

Period
93.85 min
Inclination
53.1584°
Eccentricity
0.0000880
Mean motion
15.34418485 rev/d
Perigee alt
462.0 km
Apogee alt
463.3 km
Semi-major
6,840.8 km
B*
6.8482e-4
RAAN
198.3290°
Arg perigee
59.7556°
Mean anomaly
300.3533°
Rev number
6,334

§ Raw data

STARLINK-347711 65078U 25167A   26263.36366896  .00022846  00000+0  68482-3 0  99952 65078  53.1584 198.3290 0000880  59.7556 300.3533 15.34418485 63345

JSON: /api/v1/satellites/65078 · /tle

For live sub-satellite position, see the globe view (requires WebGL).

§ Visibility from observer

Set your observer location to see the next 7 days of passes ≥ 10°. The values pass through the URL so the page stays shareable.

No JS? Fill the form by hand. The geolocation button needs JavaScript.